| time (UTC) | temp F | wind direction | speed knots | gust knots | rain 1hr in | rain 24hr in | rain mn in | humidity % | barometer mb |
| 20260510104444 | 61 | 49 | 12.2 | 23.5 | 0.00 | 0.14 | 0.00 | 66 | 1010.0 |
| 20260510103944 | 61 | 23 | 10.4 | 24.3 | 0.00 | 0.14 | 0.00 | 65 | 1010.0 |
| 20260510103444 | 61 | 29 | 10.4 | 16.5 | 0.00 | 0.14 | 0.00 | 66 | 1010.0 |
| 20260510102944 | 61 | 85 | 10.4 | 21.7 | 0.00 | 0.14 | 0.00 | 66 | 1010.0 |
| 20260510102444 | 61 | 37 | 10.4 | 24.3 | 0.00 | 0.14 | 0.00 | 66 | 1010.1 |
| 20260510101944 | 61 | 347 | 11.3 | 18.2 | 0.00 | 0.14 | 0.00 | 68 | 1010.0 |
| 20260510101444 | 61 | 53 | 11.3 | 19.1 | 0.00 | 0.14 | 0.00 | 68 | 1010.0 |
| 20260510100944 | 60 | 37 | 11.3 | 20.0 | 0.00 | 0.14 | 0.00 | 69 | 1010.1 |
| 20260510100444 | 59 | 34 | 11.3 | 20.0 | 0.00 | 0.14 | 0.00 | 69 | 1010.1 |
| 20260510095944 | 59 | 59 | 10.4 | 18.2 | 0.00 | 0.14 | 0.00 | 70 | 1010.1 |
| 20260510095444 | 59 | 70 | 11.3 | 18.2 | 0.00 | 0.14 | 0.00 | 71 | 1010.1 |
| 20260510094944 | 58 | 52 | 12.2 | 24.3 | 0.00 | 0.14 | 0.00 | 71 | 1010.2 |
| 20260510094444 | 58 | 26 | 10.4 | 20.0 | 0.00 | 0.14 | 0.00 | 71 | 1010.2 |
| 20260510093944 | 58 | 43 | 11.3 | 18.2 | 0.00 | 0.14 | 0.00 | 71 | 1010.1 |
| 20260510093444 | 58 | 52 | 13.0 | 22.6 | 0.00 | 0.14 | 0.00 | 70 | 1010.2 |
| 20260510092944 | 58 | 359 | 12.2 | 26.9 | 0.00 | 0.14 | 0.00 | 70 | 1010.2 |
| 20260510092444 | 58 | 47 | 11.3 | 19.1 | 0.00 | 0.14 | 0.00 | 70 | 1010.1 |
| 20260510091944 | 58 | 47 | 10.4 | 20.9 | 0.00 | 0.14 | 0.00 | 70 | 1010.2 |
| 20260510091444 | 58 | 30 | 10.4 | 20.0 | 0.00 | 0.14 | 0.00 | 71 | 1010.2 |
| 20260510090944 | 58 | 25 | 12.2 | 20.9 | 0.00 | 0.14 | 0.00 | 71 | 1010.2 |
| 20260510090444 | 58 | 45 | 11.3 | 20.9 | 0.00 | 0.14 | 0.00 | 71 | 1010.1 |
| 20260510085946 | 58 | 48 | 11.3 | 19.1 | 0.00 | 0.14 | 0.00 | 71 | 1010.1 |
| 20260510085444 | 58 | 27 | 11.3 | 20.9 | 0.00 | 0.14 | 0.00 | 70 | 1010.2 |
| 20260510084944 | 58 | 23 | 11.3 | 20.0 | 0.00 | 0.14 | 0.00 | 70 | 1010.2 |
| 20260510084444 | 58 | 54 | 11.3 | 20.0 | 0.00 | 0.14 | 0.00 | 71 | 1010.1 |
| 20260510083944 | 58 | 39 | 11.3 | 17.4 | 0.00 | 0.14 | 0.00 | 71 | 1010.1 |
| 20260510083444 | 58 | 21 | 13.0 | 20.9 | 0.00 | 0.14 | 0.00 | 71 | 1010.1 |
| 20260510082944 | 57 | 59 | 13.0 | 22.6 | 0.00 | 0.14 | 0.00 | 71 | 1010.2 |
| 20260510082444 | 57 | 13 | 13.9 | 21.7 | 0.00 | 0.14 | 0.00 | 71 | 1010.1 |
| 20260510081944 | 57 | 47 | 13.0 | 26.1 | 0.00 | 0.14 | 0.00 | 71 | 1010.2 |
| 20260510081444 | 57 | 28 | 13.0 | 21.7 | 0.00 | 0.14 | 0.00 | 72 | 1010.2 |
| 20260510080944 | 57 | 349 | 13.0 | 21.7 | 0.00 | 0.14 | 0.00 | 72 | 1010.2 |
| 20260510080444 | 56 | 60 | 12.2 | 20.0 | 0.00 | 0.14 | 0.00 | 73 | 1010.2 |
| 20260510075944 | 56 | 48 | 11.3 | 22.6 | 0.00 | 0.14 | 0.00 | 73 | 1010.2 |
| 20260510075444 | 56 | 59 | 11.3 | 20.0 | 0.00 | 0.14 | 0.00 | 74 | 1010.3 |
| 20260510074944 | 56 | 98 | 13.0 | 22.6 | 0.00 | 0.14 | 0.00 | 74 | 1010.2 |
| 20260510074444 | 56 | 31 | 12.2 | 20.0 | 0.00 | 0.14 | 0.00 | 74 | 1010.3 |
| 20260510073944 | 56 | 27 | 11.3 | 23.5 | 0.00 | 0.14 | 0.00 | 75 | 1010.3 |
| 20260510073444 | 55 | 37 | 11.3 | 24.3 | 0.00 | 0.14 | 0.00 | 76 | 1010.2 |
| 20260510072944 | 55 | 32 | 12.2 | 23.5 | 0.00 | 0.14 | 0.00 | 77 | 1010.2 |
| 20260510072444 | 55 | 38 | 13.0 | 24.3 | 0.00 | 0.14 | 0.00 | 78 | 1010.3 |
| 20260510071944 | 55 | 39 | 13.0 | 21.7 | 0.00 | 0.14 | 0.00 | 79 | 1010.3 |
| 20260510071444 | 55 | 34 | 12.2 | 21.7 | 0.00 | 0.14 | 0.00 | 80 | 1010.3 |
| 20260510070944 | 55 | 77 | 12.2 | 21.7 | 0.00 | 0.14 | 0.00 | 80 | 1010.4 |
| 20260510070444 | 55 | 62 | 13.0 | 20.9 | 0.00 | 0.14 | 0.00 | 80 | 1010.3 |
| 20260510065946 | 55 | 81 | 11.3 | 21.7 | 0.00 | 0.14 | 0.00 | 81 | 1010.4 |
| 20260510065444 | 55 | 71 | 10.4 | 20.9 | 0.00 | 0.14 | 0.00 | 81 | 1010.4 |
| 20260510064944 | 55 | 39 | 10.4 | 19.1 | 0.00 | 0.14 | 0.00 | 81 | 1010.4 |
| 20260510064445 | 55 | 48 | 10.4 | 20.9 | 0.00 | 0.14 | 0.00 | 81 | 1010.3 |
| 20260510063944 | 55 | 52 | 11.3 | 20.9 | 0.00 | 0.14 | 0.00 | 81 | 1010.2 |
| 20260510063444 | 55 | 59 | 10.4 | 20.0 | 0.00 | 0.14 | 0.00 | 81 | 1010.3 |
| 20260510062945 | 55 | 15 | 10.4 | 20.9 | 0.00 | 0.14 | 0.00 | 81 | 1010.2 |
| 20260510062444 | 55 | 49 | 11.3 | 21.7 | 0.00 | 0.14 | 0.00 | 82 | 1010.1 |
| 20260510061947 | 55 | 18 | 11.3 | 21.7 | 0.00 | 0.14 | 0.00 | 82 | 1010.0 |
| 20260510061444 | 55 | 349 | 9.6 | 23.5 | 0.00 | 0.14 | 0.00 | 82 | 1010.0 |
| 20260510060945 | 55 | 19 | 9.6 | 19.1 | 0.00 | 0.14 | 0.00 | 83 | 1010.1 |
| 20260510060445 | 55 | 50 | 10.4 | 18.2 | 0.00 | 0.14 | 0.00 | 83 | 1010.0 |
| 20260510055947 | 55 | 8 | 9.6 | 20.9 | 0.00 | 0.14 | 0.00 | 83 | 1009.9 |
| 20260510055445 | 55 | 29 | 8.7 | 21.7 | 0.00 | 0.14 | 0.00 | 83 | 1010.0 |
| 20260510054945 | 55 | 48 | 9.6 | 15.6 | 0.00 | 0.14 | 0.00 | 83 | 1009.8 |
| 20260510054445 | 55 | 28 | 10.4 | 22.6 | 0.00 | 0.14 | 0.00 | 83 | 1009.7 |
| 20260510053945 | 55 | 54 | 10.4 | 20.9 | 0.00 | 0.14 | 0.00 | 83 | 1009.7 |
| 20260510053445 | 55 | 98 | 10.4 | 20.9 | 0.00 | 0.14 | 0.00 | 83 | 1009.7 |
| 20260510052945 | 55 | 55 | 10.4 | 19.1 | 0.00 | 0.14 | 0.00 | 83 | 1009.6 |
| 20260510052445 | 55 | 46 | 10.4 | 17.4 | 0.00 | 0.14 | 0.00 | 83 | 1009.6 |
| 20260510051945 | 55 | 39 | 9.6 | 18.2 | 0.00 | 0.14 | 0.00 | 83 | 1009.7 |
| 20260510051445 | 55 | 13 | 9.6 | 17.4 | 0.00 | 0.14 | 0.00 | 83 | 1009.9 |
| 20260510050945 | 55 | 23 | 10.4 | 19.1 | 0.00 | 0.14 | 0.00 | 83 | 1009.8 |
| 20260510050445 | 55 | 59 | 10.4 | 15.6 | 0.00 | 0.14 | 0.00 | 84 | 1009.9 |
| 20260510045945 | 55 | 14 | 10.4 | 19.1 | 0.00 | 0.14 | 0.00 | 84 | 1009.9 |
| 20260510045445 | 55 | 33 | 9.6 | 19.1 | 0.00 | 0.14 | 0.00 | 84 | 1009.9 |
| 20260510044945 | 55 | 32 | 9.6 | 17.4 | 0.00 | 0.14 | 0.00 | 84 | 1009.9 |
| 20260510044445 | 55 | 62 | 10.4 | 20.9 | 0.00 | 0.14 | 0.00 | 84 | 1009.9 |
| 20260510043945 | 55 | 14 | 9.6 | 18.2 | 0.00 | 0.14 | 0.00 | 84 | 1009.9 |
| 20260510043445 | 55 | 8 | 9.6 | 22.6 | 0.00 | 0.14 | 0.00 | 84 | 1010.0 |
| 20260510042945 | 55 | 59 | 9.6 | 19.1 | 0.00 | 0.14 | 0.00 | 84 | 1009.9 |
| 20260510042445 | 55 | 59 | 9.6 | 20.0 | 0.00 | 0.14 | 0.00 | 84 | 1010.0 |
| 20260510041945 | 55 | 42 | 9.6 | 16.5 | 0.00 | 0.14 | 0.00 | 84 | 1010.0 |
| 20260510041445 | 55 | 56 | 9.6 | 18.2 | 0.00 | 0.14 | 0.00 | 84 | 1010.0 |
| 20260510040945 | 55 | 354 | 9.6 | 17.4 | 0.00 | 0.14 | 0.00 | 84 | 1009.9 |
| 20260510040445 | 55 | 50 | 7.8 | 13.9 | 0.00 | 0.14 | 0.00 | 84 | 1009.8 |
| 20260510035945 | 55 | 57 | 7.8 | 15.6 | 0.00 | 0.14 | 0.00 | 84 | 1009.9 |
| 20260510035445 | 55 | 54 | 8.7 | 16.5 | 0.00 | 0.14 | 0.00 | 84 | 1009.9 |
| 20260510034945 | 55 | 23 | 9.6 | 15.6 | 0.00 | 0.14 | 0.00 | 84 | 1010.0 |
| 20260510034445 | 55 | 70 | 8.7 | 18.2 | 0.00 | 0.14 | 0.00 | 84 | 1010.0 |
| 20260510033945 | 55 | 45 | 8.7 | 13.0 | 0.00 | 0.14 | 0.00 | 84 | 1010.1 |
| 20260510033445 | 55 | 33 | 10.4 | 19.1 | 0.00 | 0.14 | 0.00 | 84 | 1010.1 |
| 20260510032945 | 55 | 24 | 9.6 | 19.1 | 0.00 | 0.14 | 0.00 | 84 | 1010.1 |
| 20260510032445 | 55 | 22 | 8.7 | 14.8 | 0.00 | 0.14 | 0.00 | 84 | 1010.1 |
| 20260510031945 | 55 | 28 | 9.6 | 17.4 | 0.00 | 0.14 | 0.00 | 83 | 1010.1 |
| 20260510031445 | 55 | 48 | 9.6 | 16.5 | 0.00 | 0.14 | 0.00 | 83 | 1010.1 |
| 20260510030945 | 55 | 54 | 9.6 | 16.5 | 0.00 | 0.14 | 0.00 | 83 | 1010.1 |
| 20260510030445 | 55 | 43 | 8.7 | 18.2 | 0.00 | 0.14 | 0.00 | 83 | 1010.1 |
| 20260510025945 | 55 | 53 | 8.7 | 15.6 | 0.00 | 0.14 | 0.00 | 83 | 1010.1 |
| 20260510025445 | 55 | 60 | 9.6 | 13.9 | 0.00 | 0.14 | 0.00 | 83 | 1010.1 |
| 20260510024945 | 55 | 85 | 9.6 | 18.2 | 0.00 | 0.14 | 0.00 | 83 | 1010.2 |
| 20260510024445 | 55 | 13 | 9.6 | 17.4 | 0.00 | 0.14 | 0.00 | 82 | 1010.1 |
| 20260510023945 | 55 | 80 | 8.7 | 17.4 | 0.00 | 0.14 | 0.00 | 82 | 1010.3 |
| 20260510023445 | 55 | 97 | 9.6 | 16.5 | 0.00 | 0.14 | 0.00 | 82 | 1010.2 |
| 20260510022945 | 55 | 81 | 9.6 | 19.1 | 0.00 | 0.14 | 0.00 | 83 | 1010.2 |
| 20260510022445 | 55 | 28 | 8.7 | 18.2 | 0.00 | 0.14 | 0.00 | 82 | 1010.3 |
| 20260510021945 | 55 | 112 | 9.6 | 15.6 | 0.00 | 0.14 | 0.00 | 82 | 1010.4 |
| 20260510021445 | 55 | 47 | 9.6 | 18.2 | 0.00 | 0.14 | 0.00 | 83 | 1010.4 |
| 20260510020945 | 55 | 100 | 8.7 | 17.4 | 0.00 | 0.14 | 0.00 | 82 | 1010.4 |
| 20260510020445 | 55 | 359 | 9.6 | 16.5 | 0.00 | 0.14 | 0.00 | 82 | 1010.5 |
| 20260510015945 | 55 | 45 | 9.6 | 19.1 | 0.00 | 0.14 | 0.00 | 82 | 1010.4 |
| 20260510015445 | 55 | 60 | 10.4 | 17.4 | 0.00 | 0.14 | 0.00 | 83 | 1010.4 |
| 20260510014945 | 55 | 44 | 10.4 | 16.5 | 0.00 | 0.14 | 0.00 | 82 | 1010.5 |
| 20260510014445 | 55 | 83 | 10.4 | 20.9 | 0.00 | 0.14 | 0.00 | 82 | 1010.6 |
| 20260510013945 | 55 | 33 | 10.4 | 17.4 | 0.00 | 0.14 | 0.00 | 82 | 1010.7 |
| 20260510013445 | 55 | 342 | 9.6 | 15.6 | 0.00 | 0.14 | 0.00 | 82 | 1010.8 |
| 20260510012945 | 55 | 39 | 9.6 | 20.9 | 0.00 | 0.14 | 0.00 | 82 | 1010.8 |
| 20260510012445 | 55 | 43 | 10.4 | 19.1 | 0.00 | 0.14 | 0.00 | 82 | 1010.9 |
| 20260510011945 | 55 | 69 | 11.3 | 17.4 | 0.00 | 0.14 | 0.00 | 82 | 1011.0 |
| 20260510011445 | 55 | 74 | 11.3 | 19.1 | 0.00 | 0.14 | 0.00 | 82 | 1011.0 |
| 20260510010945 | 55 | 70 | 10.4 | 18.2 | 0.00 | 0.14 | 0.00 | 82 | 1011.0 |
| 20260510010445 | 55 | 39 | 9.6 | 20.0 | 0.00 | 0.14 | 0.00 | 82 | 1011.1 |
| 20260510005945 | 55 | 9 | 9.6 | 19.1 | 0.00 | 0.14 | 0.00 | 83 | 1011.1 |
| 20260510005445 | 55 | 36 | 10.4 | 17.4 | 0.00 | 0.14 | 0.00 | 83 | 1011.1 |
| 20260510004945 | 55 | 92 | 10.4 | 19.1 | 0.00 | 0.14 | 0.00 | 83 | 1011.1 |
| 20260510004445 | 55 | 64 | 10.4 | 18.2 | 0.00 | 0.14 | 0.00 | 83 | 1011.1 |
| 20260510003945 | 55 | 52 | 10.4 | 20.9 | 0.00 | 0.14 | 0.00 | 83 | 1011.2 |
| 20260510003445 | 55 | 52 | 10.4 | 15.6 | 0.00 | 0.14 | 0.00 | 83 | 1011.2 |
| 20260510002945 | 55 | 31 | 10.4 | 19.1 | 0.00 | 0.14 | 0.00 | 83 | 1011.2 |
| 20260510002445 | 56 | 25 | 11.3 | 20.9 | 0.00 | 0.14 | 0.00 | 83 | 1011.3 |
| 20260510001945 | 56 | 31 | 10.4 | 20.0 | 0.00 | 0.14 | 0.00 | 82 | 1011.4 |
| 20260510001445 | 56 | 35 | 8.7 | 19.1 | 0.00 | 0.14 | 0.00 | 82 | 1011.5 |
| 20260510000945 | 56 | 40 | 8.7 | 17.4 | 0.00 | 0.14 | 0.00 | 82 | 1011.4 |
| 20260510000448 | 56 | 58 | 9.6 | 16.5 | 0.00 | 0.14 | 0.00 | 82 | 1011.5 |
| 20260509235945 | 56 | 33 | 9.6 | 14.8 | 0.00 | 0.14 | 0.00 | 82 | 1011.5 |
| 20260509235445 | 56 | 36 | 9.6 | 15.6 | 0.00 | 0.14 | 0.00 | 82 | 1011.5 |
| 20260509234945 | 56 | 4 | 8.7 | 18.2 | 0.00 | 0.14 | 0.00 | 82 | 1011.5 |
| 20260509234445 | 56 | 45 | 7.8 | 15.6 | 0.00 | 0.14 | 0.00 | 83 | 1011.5 |
| 20260509233945 | 56 | 31 | 8.7 | 16.5 | 0.00 | 0.14 | 0.00 | 83 | 1011.6 |
| 20260509233445 | 56 | 29 | 7.8 | 15.6 | 0.01 | 0.14 | 0.00 | 83 | 1011.8 |
| 20260509232945 | 56 | 43 | 7.8 | 14.8 | 0.01 | 0.14 | 0.00 | 83 | 1011.8 |
| 20260509232445 | 55 | 83 | 7.8 | 13.9 | 0.01 | 0.14 | 0.00 | 83 | 1011.8 |
| 20260509231945 | 55 | 47 | 7.8 | 13.0 | 0.01 | 0.14 | 0.00 | 84 | 1011.8 |
| 20260509231445 | 55 | 17 | 7.0 | 15.6 | 0.01 | 0.14 | 0.00 | 84 | 1011.8 |
| 20260509230945 | 55 | 41 | 7.8 | 15.6 | 0.01 | 0.14 | 0.00 | 84 | 1011.9 |
| 20260509230445 | 55 | 31 | 7.8 | 13.9 | 0.01 | 0.14 | 0.14 | 84 | 1011.8 |
| 20260509225945 | 55 | 359 | 7.0 | 16.5 | 0.01 | 0.14 | 0.14 | 84 | 1011.8 |
| 20260509225445 | 55 | 350 | 7.8 | 13.0 | 0.01 | 0.14 | 0.14 | 84 | 1011.7 |
| 20260509224945 | 55 | 39 | 7.0 | 13.9 | 0.02 | 0.14 | 0.14 | 84 | 1011.8 |
| 20260509224445 | 55 | 15 | 7.0 | 15.6 | 0.02 | 0.14 | 0.14 | 84 | 1012.0 |
| 20260509223945 | 56 | 40 | 6.1 | 12.2 | 0.02 | 0.14 | 0.14 | 84 | 1011.9 |
| 20260509223445 | 56 | 62 | 6.1 | 12.2 | 0.02 | 0.13 | 0.13 | 84 | 1011.7 |
| 20260509222945 | 55 | 22 | 6.1 | 14.8 | 0.02 | 0.13 | 0.13 | 84 | 1011.8 |
| 20260509222445 | 56 | 48 | 4.3 | 13.9 | 0.02 | 0.13 | 0.13 | 84 | 1011.8 |
| 20260509221945 | 56 | 79 | 5.2 | 10.4 | 0.03 | 0.13 | 0.13 | 84 | 1011.8 |
| 20260509221445 | 56 | 54 | 5.2 | 11.3 | 0.04 | 0.13 | 0.13 | 84 | 1011.9 |
| 20260509220945 | 56 | 55 | 4.3 | 8.7 | 0.05 | 0.13 | 0.13 | 84 | 1012.0 |
| 20260509220445 | 56 | 41 | 4.3 | 10.4 | 0.05 | 0.13 | 0.13 | 84 | 1012.1 |
| 20260509215945 | 56 | 29 | 3.5 | 8.7 | 0.07 | 0.13 | 0.13 | 84 | 1012.1 |
| 20260509215445 | 56 | 354 | 3.5 | 7.8 | 0.08 | 0.13 | 0.13 | 84 | 1012.1 |
| 20260509214945 | 56 | 43 | 3.5 | 7.8 | 0.08 | 0.12 | 0.12 | 84 | 1012.1 |
| 20260509214445 | 56 | 37 | 4.3 | 8.7 | 0.09 | 0.12 | 0.12 | 83 | 1012.2 |
| 20260509213945 | 56 | 91 | 6.1 | 9.6 | 0.11 | 0.12 | 0.12 | 83 | 1012.2 |
| 20260509213445 | 56 | 73 | 7.0 | 11.3 | 0.10 | 0.11 | 0.11 | 83 | 1012.2 |
| 20260509212945 | 56 | 54 | 7.0 | 13.9 | 0.11 | 0.11 | 0.11 | 83 | 1012.2 |
| 20260509212445 | 56 | 71 | 7.8 | 11.3 | 0.11 | 0.11 | 0.11 | 82 | 1012.1 |
| 20260509211945 | 56 | 58 | 7.8 | 13.0 | 0.10 | 0.10 | 0.10 | 82 | 1012.3 |
| 20260509211445 | 56 | 41 | 7.8 | 15.6 | 0.09 | 0.09 | 0.09 | 81 | 1012.5 |
| 20260509210945 | 56 | 62 | 7.8 | 16.5 | 0.08 | 0.08 | 0.08 | 81 | 1012.5 |
| 20260509210445 | 57 | 86 | 7.0 | 13.0 | 0.08 | 0.08 | 0.08 | 80 | 1012.6 |
| 20260509205945 | 57 | 82 | 7.0 | 13.0 | 0.06 | 0.06 | 0.06 | 79 | 1012.6 |
| 20260509205445 | 57 | 81 | 8.7 | 13.9 | 0.05 | 0.05 | 0.05 | 78 | 1012.4 |
| 20260509204946 | 58 | 54 | 9.6 | 16.5 | 0.04 | 0.04 | 0.04 | 77 | 1012.3 |
| 20260509204446 | 58 | 112 | 8.7 | 15.6 | 0.03 | 0.03 | 0.03 | 75 | 1012.1 |
| 20260509203946 | 59 | 73 | 9.6 | 20.0 | 0.01 | 0.01 | 0.01 | 73 | 1012.0 |
| 20260509203446 | 60 | 27 | 9.6 | 18.2 | 0.01 | 0.01 | 0.01 | 72 | 1011.9 |
| 20260509202946 | 60 | 34 | 8.7 | 17.4 | 0.00 | 0.00 | 0.00 | 71 | 1011.9 |
| 20260509202445 | 60 | 28 | 8.7 | 14.8 | 0.00 | 0.00 | 0.00 | 70 | 1011.8 |
| 20260509201946 | 60 | 21 | 8.7 | 17.4 | 0.00 | 0.00 | 0.00 | 69 | 1011.6 |
| 20260509201446 | 61 | 52 | 8.7 | 13.9 | 0.00 | 0.00 | 0.00 | 69 | 1011.5 |
| 20260509200946 | 61 | 50 | 7.8 | 14.8 | 0.00 | 0.00 | 0.00 | 69 | 1011.6 |
| 20260509200446 | 61 | 49 | 7.0 | 11.3 | 0.00 | 0.00 | 0.00 | 69 | 1011.6 |
| 20260509195946 | 61 | 14 | 7.0 | 12.2 | 0.00 | 0.00 | 0.00 | 68 | 1011.5 |
| 20260509195446 | 61 | 42 | 7.8 | 12.2 | 0.00 | 0.00 | 0.00 | 68 | 1011.5 |
| 20260509195423 | 72 | 75 | 7.0 | 13.0 | 0.00 | 0.10 | 0.07 | 54 | 1012.0 |
| 20260509195418 | 74 | 74 | 7.0 | 13.9 | 0.00 | 0.10 | 0.07 | 51 | 1012.1 |
| 20260509194946 | 62 | 52 | 7.8 | 16.5 | 0.00 | 0.00 | 0.00 | 68 | 1011.5 |
| 20260509194512 | 62 | 12 | 7.0 | 13.9 | 0.00 | 0.00 | 0.00 | 67 | 1011.3 |
| 20260509193946 | 62 | 64 | 7.0 | 12.2 | 0.00 | 0.00 | 0.00 | 67 | 1011.2 |
| 20260509193446 | 62 | 26 | 7.8 | 12.2 | 0.00 | 0.00 | 0.00 | 66 | 1011.3 |
| 20260509192946 | 63 | 29 | 7.0 | 16.5 | 0.00 | 0.00 | 0.00 | 66 | 1011.1 |
| 20260509192446 | 63 | 46 | 6.1 | 10.4 | 0.00 | 0.00 | 0.00 | 66 | 1011.1 |
| 20260509191946 | 63 | 33 | 6.1 | 11.3 | 0.00 | 0.00 | 0.00 | 65 | 1011.0 |
| 20260509191446 | 64 | 58 | 7.0 | 13.0 | 0.00 | 0.00 | 0.00 | 64 | 1011.0 |
| 20260509190946 | 64 | 9 | 7.0 | 14.8 | 0.00 | 0.00 | 0.00 | 64 | 1011.0 |
| 20260509190446 | 65 | 4 | 7.0 | 13.0 | 0.00 | 0.00 | 0.00 | 63 | 1011.0 |
| 20260509185946 | 65 | 11 | 6.1 | 11.3 | 0.00 | 0.00 | 0.00 | 62 | 1011.0 |
| 20260509185446 | 65 | 354 | 6.1 | 13.0 | 0.00 | 0.00 | 0.00 | 62 | 1010.9 |
| 20260509184946 | 66 | 15 | 7.0 | 12.2 | 0.00 | 0.00 | 0.00 | 62 | 1010.9 |
| 20260509184446 | 66 | 340 | 7.0 | 13.0 | 0.00 | 0.00 | 0.00 | 61 | 1010.9 |
| 20260509183946 | 66 | 43 | 6.1 | 13.9 | 0.00 | 0.00 | 0.00 | 61 | 1011.0 |
| 20260509183446 | 66 | 349 | 6.1 | 13.9 | 0.00 | 0.00 | 0.00 | 61 | 1010.9 |
| 20260509182946 | 67 | 359 | 7.0 | 13.0 | 0.00 | 0.00 | 0.00 | 61 | 1010.9 |
| 20260509182446 | 67 | 27 | 7.0 | 15.6 | 0.00 | 0.00 | 0.00 | 60 | 1010.8 |
| 20260509181946 | 67 | 14 | 6.1 | 12.2 | 0.00 | 0.00 | 0.00 | 60 | 1010.8 |
| 20260509181446 | 67 | 354 | 7.8 | 12.2 | 0.00 | 0.00 | 0.00 | 61 | 1010.8 |
| 20260509180946 | 68 | 52 | 7.0 | 13.9 | 0.00 | 0.00 | 0.00 | 60 | 1010.8 |
| 20260509180446 | 69 | 19 | 6.1 | 9.6 | 0.00 | 0.00 | 0.00 | 59 | 1010.9 |
| 20260509175946 | 68 | 50 | 6.1 | 12.2 | 0.00 | 0.00 | 0.00 | 59 | 1010.8 |
| 20260509175446 | 68 | 40 | 5.2 | 11.3 | 0.00 | 0.00 | 0.00 | 59 | 1010.8 |
| 20260509174946 | 69 | 34 | 5.2 | 12.2 | 0.00 | 0.00 | 0.00 | 58 | 1010.8 |
| 20260509174446 | 69 | 42 | 5.2 | 12.2 | 0.00 | 0.00 | 0.00 | 58 | 1010.8 |
| 20260509173946 | 68 | 24 | 7.0 | 12.2 | 0.00 | 0.00 | 0.00 | 59 | 1010.7 |
| 20260509173446 | 68 | 21 | 7.0 | 11.3 | 0.00 | 0.00 | 0.00 | 60 | 1010.8 |
| 20260509172946 | 68 | 9 | 7.0 | 13.9 | 0.00 | 0.00 | 0.00 | 58 | 1010.9 |
| 20260509172446 | 68 | 52 | 7.8 | 13.9 | 0.00 | 0.00 | 0.00 | 58 | 1010.9 |
| 20260509171946 | 68 | 51 | 8.7 | 14.8 | 0.00 | 0.00 | 0.00 | 59 | 1010.7 |
| 20260509171446 | 69 | 14 | 7.8 | 15.6 | 0.00 | 0.00 | 0.00 | 56 | 1010.7 |
| 20260509170946 | 69 | 39 | 7.0 | 13.0 | 0.00 | 0.00 | 0.00 | 57 | 1010.8 |
| 20260509170446 | 69 | 359 | 7.8 | 14.8 | 0.00 | 0.00 | 0.00 | 57 | 1010.8 |
| 20260509165946 | 69 | 39 | 7.8 | 14.8 | 0.00 | 0.00 | 0.00 | 57 | 1010.8 |
| 20260509165446 | 69 | 9 | 7.0 | 12.2 | 0.00 | 0.00 | 0.00 | 58 | 1010.7 |
| 20260509164946 | 68 | 10 | 7.8 | 15.6 | 0.00 | 0.00 | 0.00 | 58 | 1010.8 |
| 20260509164446 | 68 | 95 | 8.7 | 13.0 | 0.00 | 0.00 | 0.00 | 59 | 1010.8 |
| 20260509163946 | 68 | 354 | 8.7 | 15.6 | 0.00 | 0.00 | 0.00 | 59 | 1010.8 |
| 20260509163450 | 68 | 10 | 8.7 | 15.6 | 0.00 | 0.00 | 0.00 | 57 | 1010.8 |
| 20260509162946 | 68 | 33 | 7.8 | 15.6 | 0.00 | 0.00 | 0.00 | 58 | 1010.9 |
| 20260509162446 | 69 | 10 | 7.0 | 13.9 | 0.00 | 0.00 | 0.00 | 57 | 1010.9 |
| 20260509161946 | 69 | 48 | 7.0 | 10.4 | 0.00 | 0.00 | 0.00 | 57 | 1011.0 |
| 20260509161446 | 70 | 68 | 7.8 | 13.9 | 0.00 | 0.00 | 0.00 | 56 | 1011.0 |
| 20260509160946 | 68 | 13 | 7.8 | 15.6 | 0.00 | 0.00 | 0.00 | 58 | 1011.1 |
| 20260509160446 | 68 | 83 | 7.0 | 13.9 | 0.00 | 0.00 | 0.00 | 58 | 1011.1 |
| 20260509155946 | 69 | 54 | 7.0 | 15.6 | 0.00 | 0.00 | 0.00 | 58 | 1011.1 |
| 20260509155446 | 67 | 347 | 7.0 | 11.3 | 0.00 | 0.00 | 0.00 | 60 | 1011.2 |
| 20260509154946 | 66 | 10 | 7.0 | 14.8 | 0.00 | 0.00 | 0.00 | 60 | 1011.3 |
| 20260509154446 | 66 | 30 | 7.0 | 13.0 | 0.00 | 0.00 | 0.00 | 60 | 1011.4 |
| 20260509153946 | 66 | 41 | 7.0 | 12.2 | 0.00 | 0.00 | 0.00 | 60 | 1011.4 |
| 20260509153446 | 66 | 16 | 7.8 | 15.6 | 0.00 | 0.00 | 0.00 | 60 | 1011.4 |
| 20260509152946 | 67 | 100 | 7.8 | 13.9 | 0.00 | 0.00 | 0.00 | 58 | 1011.4 |
| 20260509152446 | 68 | 17 | 8.7 | 15.6 | 0.00 | 0.00 | 0.00 | 56 | 1011.3 |
| 20260509151946 | 69 | 101 | 7.8 | 13.0 | 0.00 | 0.00 | 0.00 | 55 | 1011.3 |
| 20260509151446 | 69 | 37 | 7.8 | 13.9 | 0.00 | 0.00 | 0.00 | 55 | 1011.2 |
| 20260509150946 | 69 | 334 | 7.8 | 15.6 | 0.00 | 0.00 | 0.00 | 54 | 1011.3 |
| 20260509150446 | 70 | 326 | 7.8 | 13.9 | 0.00 | 0.00 | 0.00 | 53 | 1011.2 |
| 20260509145946 | 71 | 28 | 8.7 | 16.5 | 0.00 | 0.00 | 0.00 | 53 | 1011.3 |
| 20260509145446 | 72 | 13 | 8.7 | 13.0 | 0.00 | 0.00 | 0.00 | 51 | 1011.3 |
| 20260509144946 | 72 | 52 | 8.7 | 13.9 | 0.00 | 0.00 | 0.00 | 52 | 1011.3 |
| 20260509144446 | 71 | 30 | 8.7 | 15.6 | 0.00 | 0.00 | 0.00 | 52 | 1011.5 |
| 20260509143946 | 70 | 51 | 7.8 | 13.0 | 0.00 | 0.00 | 0.00 | 53 | 1011.6 |
| 20260509143446 | 71 | 77 | 7.0 | 12.2 | 0.00 | 0.00 | 0.00 | 51 | 1011.7 |
| 20260509142946 | 71 | 46 | 7.8 | 13.9 | 0.00 | 0.00 | 0.00 | 51 | 1011.7 |
| 20260509142446 | 70 | 69 | 7.8 | 14.8 | 0.00 | 0.00 | 0.00 | 51 | 1011.6 |
| 20260509141946 | 71 | 24 | 7.8 | 12.2 | 0.00 | 0.00 | 0.00 | 51 | 1011.6 |
| 20260509141446 | 70 | 58 | 8.7 | 14.8 | 0.00 | 0.00 | 0.00 | 51 | 1011.6 |
| 20260509140946 | 70 | 43 | 8.7 | 14.8 | 0.00 | 0.00 | 0.00 | 50 | 1011.6 |
| 20260509140446 | 71 | 29 | 8.7 | 16.5 | 0.00 | 0.00 | 0.00 | 49 | 1011.6 |
| 20260509135946 | 70 | 64 | 9.6 | 17.4 | 0.00 | 0.00 | 0.00 | 52 | 1011.6 |
| 20260509135446 | 69 | 21 | 8.7 | 14.8 | 0.00 | 0.00 | 0.00 | 53 | 1011.7 |
| 20260509134946 | 68 | 105 | 8.7 | 17.4 | 0.00 | 0.00 | 0.00 | 53 | 1011.8 |
| 20260509134446 | 68 | 53 | 9.6 | 17.4 | 0.00 | 0.00 | 0.00 | 53 | 1011.8 |
| 20260509133946 | 69 | 28 | 9.6 | 17.4 | 0.00 | 0.00 | 0.00 | 53 | 1011.9 |
| 20260509133446 | 69 | 43 | 8.7 | 16.5 | 0.00 | 0.00 | 0.00 | 52 | 1011.9 |
| 20260509132946 | 70 | 46 | 7.8 | 19.1 | 0.00 | 0.00 | 0.00 | 50 | 1011.9 |
| 20260509132446 | 70 | 62 | 8.7 | 18.2 | 0.00 | 0.00 | 0.00 | 50 | 1011.9 |
| 20260509131946 | 71 | 14 | 9.6 | 14.8 | 0.00 | 0.00 | 0.00 | 50 | 1011.8 |
| 20260509131446 | 72 | 4 | 9.6 | 16.5 | 0.00 | 0.00 | 0.00 | 48 | 1011.7 |
| 20260509130946 | 70 | 73 | 9.6 | 15.6 | 0.00 | 0.00 | 0.00 | 50 | 1011.7 |
| 20260509130446 | 69 | 38 | 8.7 | 13.9 | 0.00 | 0.00 | 0.00 | 53 | 1011.7 |
| 20260509125946 | 67 | 85 | 8.7 | 15.6 | 0.00 | 0.00 | 0.00 | 54 | 1011.8 |
| 20260509124946 | 67 | 76 | 7.8 | 14.8 | 0.00 | 0.00 | 0.00 | 53 | 1012.0 |
| 20260509124446 | 68 | 95 | 7.0 | 12.2 | 0.00 | 0.00 | 0.00 | 54 | 1012.1 |
| 20260509123946 | 68 | 32 | 8.7 | 13.0 | 0.00 | 0.00 | 0.00 | 53 | 1012.1 |
| 20260509123446 | 69 | 54 | 8.7 | 14.8 | 0.00 | 0.00 | 0.00 | 52 | 1012.1 |
| 20260509122946 | 69 | 92 | 8.7 | 14.8 | 0.00 | 0.00 | 0.00 | 51 | 1011.9 |
| 20260509122446 | 69 | 343 | 9.6 | 15.6 | 0.00 | 0.00 | 0.00 | 50 | 1011.9 |
| 20260509121946 | 70 | 60 | 9.6 | 17.4 | 0.00 | 0.00 | 0.00 | 50 | 1011.9 |
| 20260509121446 | 70 | 56 | 10.4 | 16.5 | 0.00 | 0.00 | 0.00 | 50 | 1011.8 |
| 20260509120946 | 72 | 27 | 10.4 | 20.9 | 0.00 | 0.00 | 0.00 | 48 | 1011.7 |
| 20260509120446 | 72 | 39 | 9.6 | 20.0 | 0.00 | 0.00 | 0.00 | 48 | 1011.8 |
| 20260509115946 | 72 | 27 | 7.8 | 18.2 | 0.00 | 0.00 | 0.00 | 48 | 1011.7 |
| 20260509115446 | 73 | 25 | 8.7 | 14.8 | 0.00 | 0.00 | 0.00 | 49 | 1011.8 |
| 20260509114946 | 71 | 66 | 9.6 | 16.5 | 0.00 | 0.00 | 0.00 | 49 | 1011.8 |
| 20260509114446 | 71 | 49 | 9.6 | 17.4 | 0.00 | 0.00 | 0.00 | 50 | 1011.9 |
| 20260509113946 | 71 | 19 | 9.6 | 18.2 | 0.00 | 0.00 | 0.00 | 49 | 1011.9 |
| 20260509113446 | 72 | 59 | 8.7 | 15.6 | 0.00 | 0.00 | 0.00 | 49 | 1011.9 |
| 20260509112946 | 72 | 16 | 9.6 | 17.4 | 0.00 | 0.00 | 0.00 | 49 | 1012.0 |
| 20260509112446 | 72 | 34 | 8.7 | 15.6 | 0.00 | 0.00 | 0.00 | 49 | 1012.1 |
| 20260509111947 | 72 | 75 | 7.8 | 16.5 | 0.00 | 0.00 | 0.00 | 49 | 1012.2 |
| 20260509111446 | 72 | 10 | 7.0 | 13.0 | 0.00 | 0.00 | 0.00 | 49 | 1012.1 |
| 20260509110946 | 72 | 57 | 7.0 | 15.6 | 0.00 | 0.00 | 0.00 | 51 | 1012.3 |
| 20260509110446 | 71 | 63 | 7.8 | 13.9 | 0.00 | 0.00 | 0.00 | 52 | 1012.3 |
| 20260509105946 | 71 | 48 | 8.7 | 15.6 | 0.00 | 0.00 | 0.00 | 52 | 1012.4 |
| 20260509105446 | 70 | 72 | 8.7 | 13.9 | 0.00 | 0.00 | 0.00 | 53 | 1012.4 |
| 20260509104946 | 70 | 81 | 7.8 | 14.8 | 0.00 | 0.00 | 0.00 | 53 | 1012.4 |